Weather History for Palacios, TX

Change the Weather History Date:

Wednesday, January 16, 2013

  Actual Average Record
Temperature  
Mean Temperature 46 °F -  
Max Temperature 55 °F 63 °F 79 °F (1950)
Min Temperature 37 °F 45 °F 27 °F (1965)
Degree Days  
Heating Degree Days 19    
Moisture  
Dew Point 28 °F    
Average Humidity 56    
Maximum Humidity 82    
Minimum Humidity 28    
Precipitation  
Precipitation 0.00 in - - ()
Sea Level Pressure  
Sea Level Pressure 30.27 in    
Wind  
Wind Speed 15 mph (NNW)    
Max Wind Speed 22 mph    
Max Gust Speed 33 mph    
Visibility 10 miles    
Events      
Averages and records for this station are not official NWS values.
T = Trace of Precipitation, MM = Missing Value Source: NWS Daily Summary

Daily Weather History Graph

Daily Weather History Graph

Search for Another Location

Airport:

Trip Planner

Search our weather history database for the weather conditions in past years. The results will help you decide how hot, cold, wet, or windy it might be!

Date:

Astronomy

Jan. 16, 2013 Rise Set
Actual Time 7:18 AM CST 5:51 PM CST
Civil Twilight 6:53 AM CST 6:16 PM CST
Nautical Twilight 6:24 AM CST 6:45 PM CST
Astronomical Twilight 5:56 AM CST 7:14 PM CST
Moon 10:26 AM CST 11:10 PM CST
Length of Visible Light 11h 23m
Length of Day
10h 32m
Waxing Crescent, 28% of the Moon is Illuminated
Jan 16
Waxing Crescent
Jan 18
First Quarter
Jan 26
Full
Feb 3
Last Quarter
Feb 10
New

Hourly Weather History & Observations

Time (CST) Temp. Windchill Dew Point Humidity Pressure Visibility Wind Dir Wind Speed Gust Speed Precip Events Conditions
12:53 AM 41.0 °F 32.8 °F 36.0 °F 82% 30.20 in 10.0 mi NNW 16.1 mph 24.2 mph N/A   Overcast
2:03 AM 41.0 °F 31.6 °F 33.8 °F 76% 30.22 in 10.0 mi NNW 20.7 mph - N/A   Overcast
2:53 AM 41.0 °F 31.4 °F 33.1 °F 73% 30.23 in 10.0 mi NNW 21.9 mph 28.8 mph N/A   Overcast
3:40 AM 41.0 °F 32.5 °F 33.8 °F 76% 30.23 in 10.0 mi NNW 17.3 mph - N/A   Overcast
3:53 AM 41.0 °F 32.8 °F 32.0 °F 70% 30.23 in 10.0 mi NNW 16.1 mph 25.3 mph N/A   Overcast
4:53 AM 41.0 °F 33.1 °F 32.0 °F 70% 30.24 in 10.0 mi NNW 15.0 mph - N/A   Overcast
5:53 AM 41.0 °F 33.9 °F 30.9 °F 67% 30.26 in 10.0 mi NNW 12.7 mph - N/A   Overcast
6:53 AM 39.0 °F 31.4 °F 30.0 °F 70% 30.28 in 10.0 mi NW 12.7 mph - N/A   Mostly Cloudy
7:53 AM 37.9 °F 29.6 °F 28.9 °F 70% 30.32 in 10.0 mi NW 13.8 mph - N/A   Clear
8:53 AM 41.0 °F 31.4 °F 26.1 °F 55% 30.34 in 10.0 mi NW 21.9 mph 25.3 mph N/A   Clear
9:53 AM 45.0 °F 37.6 °F 25.0 °F 46% 30.34 in 10.0 mi NNW 17.3 mph - N/A   Clear
10:53 AM 48.0 °F - 23.0 °F 37% 30.33 in 10.0 mi NW 21.9 mph 25.3 mph N/A   Clear
11:53 AM 50.0 °F - 24.1 °F 36% 30.30 in 10.0 mi NNW 17.3 mph 21.9 mph N/A   Clear
12:53 PM 53.1 °F - 21.0 °F 29% 30.27 in 10.0 mi NW 19.6 mph 28.8 mph N/A   Clear
1:53 PM 53.6 °F - 21.2 °F 28% 30.24 in 10.0 mi NW 20.7 mph 33.4 mph N/A   Clear
2:53 PM 54.0 °F - 21.9 °F 29% 30.22 in 10.0 mi NW 18.4 mph - N/A   Clear
3:53 PM 55.0 °F - 21.9 °F 28% 30.23 in 10.0 mi NW 19.6 mph 23.0 mph N/A   Clear
4:53 PM 54.0 °F - 23.0 °F 30% 30.22 in 10.0 mi NW 13.8 mph - N/A   Clear
5:53 PM 46.0 °F 42.5 °F 26.1 °F 46% 30.25 in 10.0 mi NNW 6.9 mph - N/A   Clear
6:53 PM 46.0 °F - 28.0 °F 50% 30.27 in - Calm Calm - N/A   Clear
7:53 PM 41.0 °F - 28.9 °F 62% 30.29 in - Calm Calm - N/A   Clear
8:53 PM 42.1 °F 40.2 °F 30.0 °F 62% 30.31 in - North 3.5 mph - N/A   Clear
9:53 PM 39.0 °F - 28.9 °F 67% 30.30 in - Calm Calm - N/A   Clear
10:53 PM 39.0 °F - 28.9 °F 67% 30.30 in - Calm Calm - N/A   Clear
11:53 PM 39.0 °F - 28.9 °F 67% 30.30 in - Calm Calm - N/A   Clear